Location: Bratsk-Energetik
(56.3300°N, 101.7600°E)
Time: 08:24:32
(UTC+08:00)

ISS - Pass Details

Date: 18 July 2018
Orbit: 402 x 408 km, 51.6° (Epoch: 17 July)

Event Time Altitude Azimuth Distance (km) Brightness Sun altitude
Exits shadow 00:39:50 21° 155° (SSE) 984 -2.5 -12.1°
Drops below altitude 10° 00:42:19 10° 106° (ESE) 1,469 -1.2 -12.2°
Sets 00:44:44 0° 89° (E) 2,333 0.0 -12.2°
